When you browse on this site, cookies collect data to enhance your experience and personalize the content and advertising you see.
Visit our Privacy Policy to learn more. By continuing to use the site, you agree to this use of cookies and data.
  • în România
  • Lista ţărilor
  • Pe 7 zile
  • Temperatura apei
  • Meteo pe hartă
  • Widget-uri
  • user-avatar
    Intrare

    Meteo pe oră la Saint-Dizier

    Astăzi, 26 August, Luni

    Timp Temperatura Precipitaţii Vânt Presiune Umiditate
    00:00 +21°C° 0 mm 1 m/s 750 mmHg 62%
    01:00 +20°C° 0 mm 1 m/s 750 mmHg 63%
    02:00 +20°C° 0 mm 1 m/s 750 mmHg 64%
    03:00 +17°C° 0 mm 0 m/s 750 mmHg 65%
    04:00 +20°C° 0 mm 1 m/s 750 mmHg 64%
    05:00 +20°C° 0 mm 1 m/s 750 mmHg 64%
    06:00 +21°C° 0 mm 1 m/s 750 mmHg 64%
    07:00 +23°C° 0 mm 1 m/s 751 mmHg 57%
    08:00 +26°C° 0 mm 1 m/s 751 mmHg 50%
    09:00 +28°C° 0 mm 1 m/s 751 mmHg 44%
    10:00 +30°C° 0 mm 1 m/s 751 mmHg 41%
    11:00 +31°C° 0 mm 1 m/s 750 mmHg 37%
    12:00 +32°C° 0 mm 1 m/s 750 mmHg 34%
    13:00 +32°C° 0 mm 1 m/s 750 mmHg 33%
    14:00 +32°C° 0 mm 1 m/s 749 mmHg 32%
    15:00 +33°C° 0 mm 1 m/s 749 mmHg 30%
    16:00 +31°C° 0 mm 1 m/s 749 mmHg 36%
    17:00 +29°C° 0 mm 2 m/s 749 mmHg 41%
    18:00 +27°C° 0 mm 2 m/s 749 mmHg 46%
    19:00 +26°C° 0 mm 2 m/s 749 mmHg 48%
    20:00 +25°C° 0 mm 2 m/s 749 mmHg 49%
    21:00 +24°C° 0 mm 2 m/s 749 mmHg 50%
    22:00 +23°C° 0 mm 2 m/s 749 mmHg 54%
    23:00 +21°C° 0 mm 2 m/s 749 mmHg 57%

    Mâine, 27 August, Marţi

    Timp Temperatura Precipitaţii Vânt Presiune Umiditate
    00:00 +21°C° 0 mm 2 m/s 749 mmHg 61%
    01:00 +21°C° 0 mm 1 m/s 749 mmHg 62%
    02:00 +21°C° 0 mm 1 m/s 748 mmHg 64%
    03:00 +20°C° 0 mm 1 m/s 748 mmHg 66%
    04:00 +21°C° 0 mm 1 m/s 748 mmHg 66%
    05:00 +21°C° 0 mm 1 m/s 748 mmHg 66%
    06:00 +20°C° 0 mm 2 m/s 748 mmHg 67%
    07:00 +24°C° 0 mm 2 m/s 749 mmHg 61%
    08:00 +26°C° 0 mm 2 m/s 749 mmHg 54%
    09:00 +29°C° 0 mm 2 m/s 749 mmHg 48%
    10:00 +30°C° 0 mm 2 m/s 749 mmHg 44%
    11:00 +31°C° 0 mm 2 m/s 749 mmHg 39%
    12:00 +32°C° 0 mm 2 m/s 748 mmHg 35%
    13:00 +33°C° 0 mm 1 m/s 748 mmHg 33%
    14:00 +33°C° 0 mm 1 m/s 748 mmHg 32%
    15:00 +33°C° 0 mm 1 m/s 748 mmHg 30%
    16:00 +31°C° 0 mm 1 m/s 747 mmHg 36%
    17:00 +30°C° 0 mm 1 m/s 747 mmHg 41%
    18:00 +28°C° 0 mm 2 m/s 747 mmHg 46%
    19:00 +27°C° 0 mm 2 m/s 747 mmHg 47%
    20:00 +26°C° 0 mm 2 m/s 748 mmHg 49%
    21:00 +25°C° 0 mm 3 m/s 748 mmHg 51%
    22:00 +24°C° 0 mm 3 m/s 748 mmHg 53%
    23:00 +24°C° 0 mm 2 m/s 748 mmHg 56%

    Poimâine, 28 August, Miercuri

    Timp Temperatura Precipitaţii Vânt Presiune Umiditate
    00:00 +23°C° 0 mm 2 m/s 748 mmHg 59%
    01:00 +23°C° 0 mm 2 m/s 748 mmHg 62%
    02:00 +21°C° 0 mm 2 m/s 748 mmHg 64%
    03:00 +21°C° 0 mm 2 m/s 748 mmHg 67%
    04:00 +21°C° 0 mm 2 m/s 748 mmHg 68%
    05:00 +21°C° 0 mm 2 m/s 748 mmHg 68%
    06:00 +21°C° 0 mm 2 m/s 748 mmHg 69%
    07:00 +25°C° 0 mm 2 m/s 748 mmHg 62%
    08:00 +27°C° 0 mm 2 m/s 749 mmHg 54%
    09:00 +29°C° 0 mm 2 m/s 749 mmHg 46%
    10:00 +31°C° 0 mm 2 m/s 748 mmHg 42%
    11:00 +32°C° 0 mm 2 m/s 748 mmHg 39%
    12:00 +34°C° 0 mm 1 m/s 748 mmHg 35%
    13:00 +34°C° 0 mm 1 m/s 748 mmHg 34%
    14:00 +34°C° 0 mm 1 m/s 748 mmHg 33%
    15:00 +34°C° 0 mm 1 m/s 747 mmHg 33%
    16:00 +31°C° 0.4 mm 2 m/s 747 mmHg 43%
    17:00 +28°C° 0.4 mm 4 m/s 747 mmHg 52%
    18:00 +26°C° 0.4 mm 5 m/s 747 mmHg 62%
    19:00 +23°C° 0.4 mm 4 m/s 747 mmHg 67%
    20:00 +22°C° 0.4 mm 4 m/s 748 mmHg 72%
    21:00 +21°C° 0.4 mm 3 m/s 748 mmHg 77%
    22:00 +21°C° 0.3 mm 3 m/s 748 mmHg 81%
    23:00 +20°C° 0.3 mm 3 m/s 748 mmHg 85%

    29 August, Joi

    Timp Temperatura Precipitaţii Vânt Presiune Umiditate
    00:00 +20°C° 0.3 mm 3 m/s 748 mmHg 89%
    01:00 +20°C° 0.2 mm 2 m/s 748 mmHg 90%
    02:00 +20°C° 0.2 mm 2 m/s 748 mmHg 91%
    03:00 +19°C° 0.2 mm 2 m/s 748 mmHg 91%
    04:00 +19°C° 0.1 mm 2 m/s 749 mmHg 92%
    05:00 +19°C° 0.1 mm 2 m/s 749 mmHg 92%
    06:00 +19°C° 0.1 mm 3 m/s 749 mmHg 93%
    07:00 +21°C° 0.1 mm 3 m/s 750 mmHg 87%
    08:00 +22°C° 0.1 mm 3 m/s 750 mmHg 81%
    09:00 +25°C° 0.1 mm 3 m/s 751 mmHg 76%
    10:00 +25°C° 0 mm 3 m/s 751 mmHg 72%
    11:00 +26°C° 0 mm 3 m/s 751 mmHg 68%
    12:00 +26°C° 0 mm 4 m/s 751 mmHg 64%
    13:00 +27°C° 0 mm 4 m/s 751 mmHg 60%
    14:00 +27°C° 0 mm 4 m/s 750 mmHg 56%
    15:00 +28°C° 0 mm 4 m/s 750 mmHg 51%
    16:00 +27°C° 0 mm 3 m/s 751 mmHg 55%
    17:00 +25°C° 0 mm 3 m/s 751 mmHg 58%
    18:00 +24°C° 0 mm 2 m/s 751 mmHg 62%
    19:00 +23°C° 0 mm 2 m/s 751 mmHg 67%
    20:00 +20°C° 0 mm 2 m/s 752 mmHg 73%
    21:00 +19°C° 0 mm 2 m/s 752 mmHg 78%
    22:00 +18°C° 0 mm 2 m/s 752 mmHg 82%
    23:00 +17°C° 0 mm 2 m/s 752 mmHg 86%

    30 August, Vineri

    Timp Temperatura Precipitaţii Vânt Presiune Umiditate
    00:00 +16°C° 0 mm 2 m/s 752 mmHg 90%
    01:00 +16°C° 0 mm 1 m/s 752 mmHg 91%
    02:00 +16°C° 0 mm 1 m/s 752 mmHg 92%
    03:00 +16°C° 0 mm 1 m/s 752 mmHg 92%
    04:00 +16°C° 0 mm 1 m/s 752 mmHg 91%
    05:00 +16°C° 0 mm 1 m/s 752 mmHg 90%
    06:00 +18°C° 0 mm 1 m/s 753 mmHg 89%
    07:00 +20°C° 0 mm 1 m/s 753 mmHg 81%
    08:00 +22°C° 0 mm 1 m/s 753 mmHg 72%
    09:00 +24°C° 0 mm 2 m/s 753 mmHg 64%
    10:00 +25°C° 0 mm 2 m/s 753 mmHg 59%
    11:00 +26°C° 0 mm 2 m/s 752 mmHg 53%
    12:00 +27°C° 0 mm 2 m/s 752 mmHg 48%
    13:00 +27°C° 0 mm 2 m/s 752 mmHg 48%
    14:00 +27°C° 0 mm 2 m/s 751 mmHg 48%
    15:00 +27°C° 0 mm 2 m/s 751 mmHg 48%
    16:00 +26°C° 0 mm 2 m/s 751 mmHg 52%
    17:00 +24°C° 0 mm 2 m/s 751 mmHg 56%
    18:00 +23°C° 0 mm 2 m/s 750 mmHg 61%
    19:00 +21°C° 0 mm 2 m/s 751 mmHg 64%
    20:00 +19°C° 0 mm 2 m/s 751 mmHg 66%
    21:00 +18°C° 0 mm 2 m/s 751 mmHg 69%
    22:00 +17°C° 0 mm 2 m/s 750 mmHg 71%
    23:00 +17°C° 0 mm 2 m/s 750 mmHg 72%

    31 August, Sâmbătă

    Timp Temperatura Precipitaţii Vânt Presiune Umiditate
    00:00 +16°C° 0 mm 1 m/s 750 mmHg 73%
    01:00 +16°C° 0 mm 1 m/s 750 mmHg 76%
    02:00 +16°C° 0 mm 1 m/s 749 mmHg 78%
    03:00 +14°C° 0 mm 0 m/s 749 mmHg 80%
    04:00 +15°C° 0 mm 0 m/s 749 mmHg 79%
    05:00 +18°C° 0 mm 1 m/s 749 mmHg 78%
    06:00 +18°C° 0 mm 1 m/s 749 mmHg 77%
    07:00 +19°C° 0 mm 0 m/s 749 mmHg 70%
    08:00 +21°C° 0 mm 0 m/s 749 mmHg 62%
    09:00 +24°C° 0 mm 0 m/s 749 mmHg 55%
    10:00 +27°C° 0 mm 1 m/s 749 mmHg 51%
    11:00 +28°C° 0 mm 2 m/s 748 mmHg 47%
    12:00 +29°C° 0 mm 2 m/s 748 mmHg 43%
    13:00 +29°C° 0 mm 3 m/s 748 mmHg 42%
    14:00 +29°C° 0 mm 3 m/s 747 mmHg 40%
    15:00 +29°C° 0 mm 4 m/s 747 mmHg 39%
    16:00 +28°C° 0 mm 3 m/s 747 mmHg 43%
    17:00 +26°C° 0 mm 3 m/s 747 mmHg 48%
    18:00 +24°C° 0 mm 2 m/s 747 mmHg 52%
    19:00 +23°C° 0 mm 2 m/s 747 mmHg 55%
    20:00 +20°C° 0 mm 2 m/s 747 mmHg 58%
    21:00 +19°C° 0 mm 2 m/s 747 mmHg 61%
    22:00 +19°C° 0 mm 1 m/s 747 mmHg 63%
    23:00 +19°C° 0 mm 1 m/s 747 mmHg 66%
    Arată mai mult